Bonaire, Netherlands

5:02 PM AST on May 23, 2017 (GMT -0400)
Flamingo

Weather History for TNCB - December, 2014

Change the Weather History Date:

Tuesday, December 23, 2014

  Actual Average Record
Temperature  
Mean Temperature 80 °F -  
Max Temperature 82 °F 84 °F 89 °F (1996)
Min Temperature 78 °F 77 °F 75 °F (1999)
Cooling Degree Days 15    
Growing Degree Days 30 (Base 50)    
Moisture  
Dew Point 74 °F    
Average Humidity 80    
Maximum Humidity 89    
Minimum Humidity 74    
Precipitation  
Precipitation 0.00 in - - ()
Sea Level Pressure  
Sea Level Pressure 29.87 in    
Wind  
Wind Speed 16 mph ()    
Max Wind Speed 24 mph    
Max Gust Speed 29 mph    
Visibility 6.2 miles    
Events Rain    
Averages and records for this station are not official NWS values.
T = Trace of Precipitation, MM = Missing Value Source: Averaged Metar Reports

Daily Weather History Graph

Daily Weather History Graph

Search for Another Location

Airport or City:

Trip Planner

Search our weather history database for the weather conditions in past years. The results will help you decide how hot, cold, wet, or windy it might be!

Date:

Astronomy

Dec. 23, 2014 Rise Set
Actual Time 6:49 AM AST 6:14 PM AST
Civil Twilight 6:26 AM AST 6:37 PM AST
Nautical Twilight 6:00 AM AST 7:04 PM AST
Astronomical Twilight 5:33 AM AST 7:30 PM AST
Moon 8:08 AM AST 8:06 PM AST
Length of Visible Light 12h 10m
Length of Day
11h 24m
Waxing Crescent, 3% of the Moon is Illuminated
Dec 23
Waxing Crescent
Dec 28
First Quarter
Jan 5
Full
Jan 13
Last Quarter
Jan 20
New

Hourly Weather History & Observations

Time (AST) Temp. Heat Index Dew Point Humidity Pressure Visibility Wind Dir Wind Speed Gust Speed Precip Events Conditions
12:00 AM 80.6 °F 84.6 °F 71.6 °F 74% 29.89 in - ENE 15.0 mph - N/A   Unknown
1:00 AM 80.6 °F 85.4 °F 73.4 °F 79% 29.89 in - ENE 18.4 mph - N/A   Unknown
2:00 AM 80.6 °F 85.4 °F 73.4 °F 79% 29.86 in - ENE 18.4 mph - N/A   Unknown
3:00 AM 80.6 °F 85.4 °F 73.4 °F 79% 29.83 in - NE 17.3 mph - N/A   Unknown
4:00 AM 80.6 °F 85.4 °F 73.4 °F 79% 29.83 in - ENE 16.1 mph - N/A   Unknown
5:00 AM 80.6 °F 85.4 °F 73.4 °F 79% 29.83 in - NE 16.1 mph - N/A   Unknown
6:00 AM 80.6 °F 85.4 °F 73.4 °F 79% 29.83 in - NE 17.3 mph - N/A   Unknown
7:00 AM 80.6 °F 85.4 °F 73.4 °F 79% 29.86 in - NE 20.7 mph - N/A   Unknown
8:00 AM 82.4 °F 88.2 °F 73.4 °F 74% 29.86 in - NE 20.7 mph - N/A   Unknown
9:00 AM 80.6 °F 85.4 °F 73.4 °F 79% 29.89 in 6.2 mi ENE 20.7 mph - N/A Rain Rain
10:00 AM 80.6 °F 85.4 °F 73.4 °F 79% 29.92 in 6.2 mi ENE 16.1 mph - N/A Rain Light Rain
11:00 AM 82.4 °F 89.5 °F 75.2 °F 79% 29.92 in 6.2 mi ENE 21.9 mph - N/A Rain Light Rain
12:00 PM 78.8 °F - 73.4 °F 83% 29.92 in 6.2 mi East 17.3 mph - N/A Rain Light Rain
1:00 PM 78.8 °F - 75.2 °F 89% 29.89 in 6.2 mi East 15.0 mph 28.8 mph N/A   Mostly Cloudy
1:55 PM 78.8 °F - 73.4 °F 83% 29.89 in 6.2 mi East 15.0 mph - N/A   Scattered Clouds
3:00 PM 82.4 °F 90.9 °F 77.0 °F 84% 29.86 in 6.2 mi ENE 21.9 mph - N/A   Scattered Clouds
4:00 PM 82.4 °F 89.5 °F 75.2 °F 79% 29.83 in 6.2 mi ENE 24.2 mph - N/A   Scattered Clouds
6:00 PM 82.4 °F 89.5 °F 75.2 °F 79% 29.86 in - ENE 18.4 mph - N/A   Unknown
7:00 PM 80.6 °F 86.2 °F 75.2 °F 84% 29.86 in 6.2 mi ENE 18.4 mph - N/A   Scattered Clouds
8:00 PM 80.6 °F 86.2 °F 75.2 °F 84% 29.86 in - ENE 17.3 mph - N/A   Unknown
10:00 PM 80.6 °F 86.2 °F 75.2 °F 84% 29.89 in - NE 15.0 mph - N/A   Unknown
11:00 PM 80.6 °F 85.4 °F 73.4 °F 79% 29.89 in - ENE 15.0 mph - N/A   Unknown